Location: Bastelaar
(51.0950°N, 3.8602°E)
Time: 16:33:41
(UTC+00:00)

USA 281 - Pass Details

Date: 18 November 2025
Orbit: 1079 x 1080 km, 106.0° (Epoch: 11 December)

Event Time Altitude Azimuth Distance (km) Brightness Sun altitude
Exits shadow 18:11:31 38° 89° (E) 1,597 3.6 -21.5°
Maximum altitude 18:13:16 46° 51° (NE) 1,422 3.5 -21.7°
Drops below altitude 10° 18:19:28 10° 341° (NNW) 2,931 5.7 -22.7°
Sets 18:22:05 0° 335° (NNW) 3,890 6.4 -23.1°
